Location: Brookview Estates
(36.0476°N, 86.6931°W)
Time: 05:15:48
(UTC+00:00)

Cosmos 2333 Rocket - Pass Details

Date: 30 March 2020
Orbit: 841 x 861 km, 70.8° (Epoch: 31 May)

Event Time Altitude Azimuth Distance (km) Brightness Sun altitude
Rises 08:42:59 0° 344° (NNW) 3,401 5.6 -33.3°
Reaches altitude 10° 08:45:33 10° 350° (N) 2,464 4.9 -32.9°
Maximum altitude 08:50:58 47° 64° (ENE) 1,111 3.1 -32.0°
Drops below altitude 10° 08:56:23 10° 137° (SE) 2,458 4.7 -31.1°
Sets 08:58:55 0° 143° (SE) 3,393 5.4 -30.6°
